WW5AH-9 Weather Reports


time (UTC)temp
C
wind
direction
speed
KPH
gust
KPH
rain 1hr
cm
rain 24hr
cm
rain mn
cm
humidity
%
barometer
mb
20260506193149 14 81 3.2 14.5 0.00 0.10 0.10 89 1012.4
20260506192646 13 85 0.0 4.8 0.00 0.10 0.10 90 1012.5
20260506192142 13 28 1.6 9.7 0.00 0.10 0.10 90 1012.2
20260506191639 13 316 1.6 4.8 0.00 0.10 0.10 90 1012.3
20260506191135 14 15 11.3 20.9 0.00 0.10 0.10 90 1011.8
20260506190632 13 28 8.0 11.3 0.00 0.10 0.10 90 1011.3
20260506190129 13 141 4.8 12.9 0.00 0.10 0.10 91 1011.2
20260506185626 13 103 17.7 20.9 0.00 0.10 0.10 90 1011.7
20260506185122 13 2 3.2 16.1 0.00 0.10 0.10 90 1012.2
20260506184620 13 9 4.8 11.3 0.00 0.10 0.10 91 1011.9
20260506184117 13 22 11.3 16.1 0.00 0.10 0.10 91 1012.4
20260506183614 13 76 4.8 20.9 0.00 0.10 0.10 91 1012.7
20260506183109 13 240 6.4 20.9 0.00 0.10 0.10 92 1012.9
20260506182608 13 66 3.2 12.9 0.00 0.10 0.10 92 1012.5
20260506182104 13 85 8.0 22.5 0.00 0.10 0.10 92 1013.1
20260506181602 13 36 8.0 14.5 0.00 0.10 0.10 93 1013.6
20260506181059 13 60 8.0 14.5 0.00 0.10 0.10 93 1014.0
20260506180555 13 169 3.2 9.7 0.00 0.10 0.10 93 1013.9
20260506180052 13 86 4.8 11.3 0.00 0.10 0.10 93 1013.8
20260506175548 13 39 3.2 6.4 0.00 0.10 0.10 93 1014.3
20260506175045 13 157 1.6 11.3 0.00 0.10 0.10 93 1014.8
20260506174544 13 326 1.6 1.6 0.00 0.10 0.10 93 1015.2
20260506174039 13 27 4.8 9.7 0.00 0.10 0.10 93 1015.4
20260506173537 13 32 1.6 11.3 0.00 0.10 0.10 93 1015.4
20260506173034 13 167 4.8 6.4 0.00 0.10 0.10 93 1015.0
20260506172532 13 65 1.6 11.3 0.00 0.10 0.10 93 1014.3
20260506172027 13 94 1.6 6.4 0.00 0.10 0.10 93 1014.2
20260506171525 13 357 1.6 11.3 0.00 0.10 0.10 92 1014.6
20260506171022 13 65 8.0 11.3 0.00 0.10 0.10 92 1014.5
20260506170520 13 5 0.0 4.8 0.00 0.10 0.10 92 1014.6
20260506170017 13 35 3.2 6.4 0.00 0.10 0.10 92 1014.6
20260506165516 13 29 3.2 6.4 0.00 0.10 0.10 93 1014.5
20260506165011 13 188 0.0 6.4 0.18 0.10 0.10 92 1014.6
20260506164508 13 33 6.4 11.3 0.18 0.10 0.10 92 1014.1
20260506164006 13 82 8.0 9.7 0.30 0.08 0.08 92 1014.2
20260506163501 13 87 4.8 14.5 0.18 0.05 0.05 92 1013.5
20260506162956 13 39 1.6 3.2 0.00 0.03 0.03 92 1013.5
20260506162454 13 68 1.6 6.4 0.00 0.03 0.03 92 1013.7
20260506161951 14 66 6.4 12.9 0.00 0.03 0.03 92 1014.2
20260506161449 14 81 0.0 11.3 0.00 0.03 0.03 92 1013.9
20260506160946 14 59 3.2 16.1 0.00 0.03 0.03 92 1014.1
20260506160443 15 97 1.6 4.8 0.00 0.03 0.03 92 1013.5
20260506155940 15 25 0.0 4.8 0.00 0.03 0.03 92 1013.5
20260506155438 15 79 3.2 11.3 0.13 0.03 0.03 92 1013.4
20260506153605 15 206 0.0 3.2 0.00 0.00 0.00 91 1013.1
20260506153102 15 182 0.0 0.0 0.00 0.00 0.00 91 1013.1
20260506152559 15 248 0.0 3.2 0.00 0.00 0.00 91 1013.2
20260506152057 15 275 1.6 1.6 0.00 0.00 0.00 91 1012.9
20260506151555 15 252 1.6 3.2 0.00 0.00 0.00 91 1012.7
20260506151052 15 349 0.0 3.2 0.00 0.00 0.00 91 1012.7
20260506150548 15 283 1.6 1.6 0.00 0.00 0.00 91 1012.5
20260506150045 15 310 0.0 1.6 0.00 0.00 0.00 90 1012.5
20260506145542 15 226 1.6 1.6 0.00 0.00 0.00 90 1012.5
20260506145039 15 311 0.0 1.6 0.00 0.00 0.00 90 1012.4
20260506144536 14 182 0.0 4.8 0.00 0.00 0.00 90 1012.3
20260506144033 15 253 3.2 3.2 0.00 0.00 0.00 90 1012.4
20260506143531 14 198 0.0 1.6 0.00 0.00 0.00 90 1012.0
20260506143029 14 258 1.6 3.2 0.00 0.00 0.00 89 1012.2
20260506142526 14 323 3.2 3.2 0.00 0.00 0.00 89 1012.3
20260506142024 14 332 3.2 4.8 0.00 0.00 0.00 89 1012.3
20260506141522 14 50 1.6 4.8 0.00 0.00 0.00 88 1012.3
20260506141020 14 303 4.8 6.4 0.00 0.00 0.00 88 1012.1
20260506140517 14 258 0.0 3.2 0.00 0.00 0.00 88 1011.9
20260506140014 14 163 0.0 3.2 0.00 0.00 0.00 87 1012.0
20260506135511 14 324 3.2 4.8 0.00 0.00 0.00 87 1011.9
20260506135007 15 263 1.6 4.8 0.00 0.00 0.00 87 1012.3
20260506134504 15 249 1.6 3.2 0.00 0.00 0.00 86 1011.9
20260506134000 15 340 1.6 3.2 0.00 0.00 0.00 86 1011.6
20260506133457 15 334 3.2 4.8 0.00 0.00 0.00 86 1011.8
20260506132954 15 269 1.6 4.8 0.00 0.00 0.00 85 1011.9
20260506132451 15 191 1.6 3.2 0.00 0.00 0.00 85 1011.7
20260506131948 15 324 3.2 4.8 0.00 0.00 0.00 85 1011.5
20260506131445 15 292 1.6 3.2 0.00 0.00 0.00 85 1011.4
20260506130942 15 346 1.6 3.2 0.00 0.00 0.00 85 1011.4
20260506130438 15 221 1.6 3.2 0.00 0.00 0.00 84 1011.5
20260506125936 15 221 0.0 4.8 0.00 0.00 0.00 84 1011.5
20260506125434 15 209 1.6 4.8 0.00 0.00 0.00 85 1011.3
20260506124932 15 314 3.2 4.8 0.00 0.00 0.00 85 1011.0
20260506124429 15 356 3.2 3.2 0.00 0.00 0.00 85 1011.0
20260506123927 15 274 0.0 1.6 0.00 0.00 0.00 85 1011.1
20260506123425 15 286 1.6 3.2 0.00 0.00 0.00 85 1010.9
20260506122922 15 227 0.0 1.6 0.00 0.00 0.00 85 1010.8
20260506122419 15 224 1.6 1.6 0.00 0.00 0.00 85 1010.8
20260506121918 15 193 0.0 1.6 0.00 0.00 0.00 85 1010.7
20260506121414 15 275 3.2 3.2 0.00 0.00 0.00 86 1010.5
20260506120911 15 269 0.0 1.6 0.00 0.00 0.00 86 1010.4
20260506120409 15 236 0.0 1.6 0.00 0.00 0.00 86 1010.5
20260506115906 15 312 1.6 3.2 0.00 0.00 0.00 86 1010.4
20260506115404 15 306 1.6 3.2 0.00 0.00 0.00 86 1010.2
20260506114902 15 223 0.0 0.0 0.00 0.00 0.00 86 1010.0
20260506114359 15 196 0.0 0.0 0.00 0.00 0.00 86 1009.5
20260506113858 15 321 1.6 4.8 0.00 0.00 0.00 86 1009.6
20260506113355 15 280 3.2 3.2 0.00 0.00 0.00 86 1009.7
20260506112851 15 206 0.0 1.6 0.00 0.00 0.00 87 1009.5
20260506112348 15 325 3.2 4.8 0.00 0.00 0.00 87 1009.4
20260506111846 15 221 0.0 1.6 0.00 0.00 0.00 87 1009.5
20260506111344 15 324 1.6 3.2 0.00 0.00 0.00 87 1009.3
20260506110841 15 218 0.0 1.6 0.00 0.00 0.00 87 1009.1
20260506110338 15 329 1.6 3.2 0.00 0.00 0.00 87 1008.9
20260506105835 15 216 0.0 1.6 0.00 0.00 0.00 87 1008.6
20260506105331 15 244 0.0 0.0 0.00 0.00 0.00 86 1008.9
20260506104829 15 208 0.0 1.6 0.00 0.00 0.00 86 1008.9
20260506104326 15 180 0.0 1.6 0.00 0.00 0.00 86 1008.7
20260506103824 15 204 0.0 3.2 0.00 0.00 0.00 86 1008.9
20260506103321 15 265 3.2 4.8 0.00 0.00 0.00 85 1008.9
20260506102819 15 242 0.0 0.0 0.00 0.00 0.00 85 1008.8
20260506102316 15 271 1.6 3.2 0.00 0.00 0.00 85 1008.7
20260506101814 15 300 3.2 3.2 0.00 0.00 0.00 85 1008.7
20260506101309 15 228 0.0 1.6 0.00 0.00 0.00 85 1008.9
20260506100808 16 213 0.0 0.0 0.00 0.00 0.00 85 1008.4
20260506100305 16 248 0.0 0.0 0.00 0.00 0.00 85 1008.6
20260506095804 16 228 0.0 0.0 0.00 0.00 0.00 84 1008.4
20260506095300 16 236 0.0 0.0 0.00 0.00 0.00 84 1008.5
20260506094757 16 213 0.0 0.0 0.00 0.00 0.00 84 1008.5
20260506094255 16 216 0.0 0.0 0.00 0.00 0.00 84 1008.7
20260506093754 16 217 0.0 0.0 0.00 0.00 0.00 83 1008.5
20260506093250 16 190 0.0 3.2 0.00 0.00 0.00 83 1008.3
20260506092749 16 27 0.0 1.6 0.00 0.00 0.00 82 1008.6
20260506092246 16 230 3.2 4.8 0.00 0.00 0.00 82 1008.5
20260506091743 16 226 0.0 1.6 0.00 0.00 0.00 81 1008.4
20260506091240 16 216 0.0 4.8 0.00 0.00 0.00 81 1008.3
20260506090738 16 190 0.0 3.2 0.00 0.00 0.00 81 1008.0
20260506090235 16 225 1.6 3.2 0.00 0.00 0.00 81 1008.0
20260506085732 16 217 0.0 1.6 0.00 0.00 0.00 81 1007.9
20260506085228 16 176 1.6 1.6 0.00 0.00 0.00 81 1008.1
20260506084725 16 188 0.0 0.0 0.00 0.00 0.00 81 1008.1
20260506084221 16 250 4.8 4.8 0.00 0.00 0.00 81 1008.0
20260506083718 16 191 0.0 1.6 0.00 0.00 0.00 81 1008.3
20260506083216 16 238 1.6 3.2 0.00 0.00 0.00 81 1008.0
20260506082713 16 215 0.0 6.4 0.00 0.00 0.00 81 1007.9
20260506082208 17 245 0.0 1.6 0.00 0.00 0.00 81 1008.0
20260506081706 17 252 0.0 1.6 0.00 0.00 0.00 81 1008.0
20260506081204 17 203 0.0 0.0 0.00 0.00 0.00 81 1007.9
20260506080701 17 250 1.6 9.7 0.00 0.00 0.00 81 1007.7
20260506080157 17 209 3.2 9.7 0.00 0.00 0.00 80 1007.7
20260506073142 18 284 6.4 11.3 0.00 0.00 0.00 81 1007.6
20260506072638 18 304 0.0 9.7 0.00 0.00 0.00 80 1007.5
20260506072136 18 242 6.4 9.7 0.00 0.00 0.00 80 1007.5
20260506071633 18 273 0.0 3.2 0.00 0.00 0.00 80 1007.1
20260506071131 18 212 1.6 3.2 0.00 0.00 0.00 80 1007.5
20260506070628 18 284 6.4 9.7 0.00 0.00 0.00 80 1007.3
20260506070125 18 244 1.6 1.6 0.00 0.00 0.00 80 1007.1
20260506062103 20 320 0.0 3.2 0.00 0.00 0.00 81 1007.1
20260506061558 21 200 0.0 4.8 0.00 0.00 0.00 82 1006.8
20260506061056 21 271 1.6 3.2 0.00 0.00 0.00 82 1006.7
20260506060554 21 255 3.2 4.8 0.00 0.00 0.00 82 1006.6
20260506051023 24 207 0.0 0.0 0.00 0.00 0.00 85 1006.3
20260506050521 24 187 0.0 0.0 0.00 0.00 0.00 85 1006.3
20260506045011 24 182 3.2 4.8 0.00 0.00 0.00 84 1006.1
20260506044509 24 127 1.6 1.6 0.00 0.00 0.00 84 1006.2
20260506044006 24 190 0.0 6.4 0.00 0.00 0.00 84 1006.1
20260506043503 24 180 1.6 4.8 0.00 0.00 0.00 84 1006.2
20260506043000 24 164 1.6 6.4 0.00 0.00 0.00 84 1006.0
20260506042454 24 186 0.0 1.6 0.00 0.00 0.00 84 1006.1
20260506041951 24 195 1.6 4.8 0.00 0.00 0.00 84 1005.9
20260506041450 24 185 3.2 4.8 0.00 0.00 0.00 84 1006.0
20260506040946 24 153 3.2 6.4 0.00 0.00 0.00 84 1006.1
20260506040445 24 184 0.0 0.0 0.00 0.00 0.00 84 1006.1
20260506035940 24 152 1.6 1.6 0.00 0.00 0.00 84 1005.9
20260506035438 24 172 3.2 3.2 0.00 0.00 0.00 84 1006.2
20260506034934 24 180 0.0 3.2 0.00 0.00 0.00 84 1006.2
20260506034432 24 198 0.0 0.0 0.00 0.00 0.00 83 1006.4
20260506033929 24 182 0.0 0.0 0.00 0.00 0.00 83 1006.4
20260506033426 24 206 0.0 0.0 0.00 0.00 0.00 83 1005.9
20260506032923 24 188 0.0 1.6 0.00 0.00 0.00 83 1005.7
20260506032420 24 187 0.0 1.6 0.00 0.00 0.00 83 1005.6
20260506031916 24 193 0.0 0.0 0.00 0.00 0.00 82 1005.5
20260506031413 24 184 0.0 0.0 0.00 0.00 0.00 82 1005.1
20260506030911 24 207 0.0 3.2 0.00 0.00 0.00 82 1005.5
20260506030409 25 85 0.0 3.2 0.00 0.00 0.00 82 1004.9
20260506025905 25 168 1.6 3.2 0.00 0.00 0.00 82 1005.2
20260506025402 25 202 0.0 1.6 0.00 0.00 0.00 82 1005.5
20260506024900 25 197 0.0 1.6 0.00 0.00 0.00 81 1005.2
20260506024357 25 180 0.0 3.2 0.00 0.00 0.00 82 1005.3
20260506023852 24 185 0.0 3.2 0.00 0.00 0.00 81 1005.6
20260506023350 24 193 1.6 3.2 0.00 0.00 0.00 81 1004.7
20260506022846 24 171 0.0 1.6 0.00 0.00 0.00 81 1004.6
20260506022343 25 212 0.0 1.6 0.00 0.00 0.00 81 1004.7
20260506021841 25 181 0.0 3.2 0.00 0.00 0.00 80 1004.1
20260506021338 25 148 3.2 6.4 0.00 0.00 0.00 80 1004.2
20260506020834 25 165 0.0 3.2 0.00 0.00 0.00 80 1004.5
20260506020333 25 155 1.6 1.6 0.00 0.00 0.00 79 1004.9
20260506015830 25 169 0.0 1.6 0.00 0.00 0.00 79 1004.7
20260506015328 25 166 3.2 3.2 0.00 0.00 0.00 79 1005.1
20260506014824 25 175 1.6 3.2 0.00 0.00 0.00 79 1005.1
20260506014321 25 153 3.2 6.4 0.00 0.00 0.00 79 1004.7
20260506013817 25 183 1.6 3.2 0.00 0.00 0.00 79 1004.9
20260506013315 25 181 1.6 3.2 0.00 0.00 0.00 78 1004.6
20260506012811 25 154 1.6 3.2 0.00 0.00 0.00 78 1004.5
20260506012308 25 123 1.6 3.2 0.00 0.00 0.00 78 1004.7
20260506011805 25 177 1.6 3.2 0.00 0.00 0.00 77 1004.9
20260506011301 25 196 0.0 4.8 0.00 0.00 0.00 77 1005.0
20260506010800 25 197 1.6 4.8 0.00 0.00 0.00 77 1004.5
20260506010258 26 181 1.6 1.6 0.00 0.00 0.00 76 1004.7
20260506005754 26 167 1.6 3.2 0.00 0.00 0.00 76 1004.6
20260506005251 26 186 0.0 3.2 0.00 0.00 0.00 76 1004.6
20260506004747 26 172 3.2 4.8 0.00 0.00 0.00 75 1004.4
20260506004245 26 207 3.2 4.8 0.00 0.00 0.00 75 1004.5
20260506003740 26 177 0.0 4.8 0.00 0.00 0.00 75 1004.2
20260506003237 26 112 1.6 4.8 0.00 0.00 0.00 74 1004.2
20260506002733 26 188 0.0 3.2 0.00 0.00 0.00 74 1004.3
20260506002230 26 197 0.0 0.0 0.00 0.00 0.00 73 1004.1
20260506001725 26 242 1.6 3.2 0.00 0.00 0.00 73 1003.9
20260506001223 26 185 3.2 4.8 0.00 0.00 0.00 73 1004.0
20260506000719 27 189 3.2 4.8 0.00 0.00 0.00 72 1004.2
20260506000219 27 174 1.6 4.8 0.00 0.00 0.00 72 1004.1
20260505235715 27 208 3.2 6.4 0.00 0.00 0.00 72 1004.1
20260505235213 27 176 3.2 6.4 0.00 0.00 0.00 72 1004.4
20260505234709 27 193 0.0 0.0 0.00 0.00 0.00 71 1004.3
20260505234206 27 192 0.0 4.8 0.00 0.00 0.00 71 1004.2
20260505233702 27 220 3.2 4.8 0.00 0.00 0.00 70 1003.9
20260505233200 27 194 3.2 11.3 0.00 0.00 0.00 70 1003.7
20260505232658 27 216 6.4 9.7 0.00 0.00 0.00 71 1003.6
20260505232155 27 166 4.8 9.7 0.00 0.00 0.00 71 1003.6
20260505231651 27 205 1.6 6.4 0.00 0.00 0.00 71 1003.6
20260505231150 27 183 3.2 6.4 0.00 0.00 0.00 70 1003.4
20260505230648 27 201 4.8 9.7 0.00 0.00 0.00 70 1003.6
20260505230144 27 164 9.7 16.1 0.00 0.00 0.00 69 1003.5
20260505225635 28 151 3.2 12.9 0.00 0.00 0.00 68 1003.8
20260505225132 28 167 0.0 11.3 0.00 0.00 0.00 69 1003.8
20260505224628 27 224 6.4 11.3 0.00 0.00 0.00 68 1003.9
20260505224126 28 178 1.6 12.9 0.00 0.00 0.00 67 1003.7
20260505223623 28 227 4.8 4.8 0.00 0.00 0.00 66 1004.1
20260505223119 28 205 0.0 9.7 0.00 0.00 0.00 67 1003.9
20260505222616 28 153 3.2 4.8 0.00 0.00 0.00 66 1003.7
20260505222112 29 203 1.6 11.3 0.00 0.00 0.00 65 1003.6
20260505221609 29 176 0.0 11.3 0.00 0.00 0.00 65 1003.7
20260505221105 29 225 4.8 6.4 0.00 0.00 0.00 65 1003.8
20260505220602 29 341 3.2 4.8 0.00 0.00 0.00 66 1003.7
20260505220100 28 252 1.6 11.3 0.00 0.00 0.00 67 1003.9
20260505215558 28 10 0.0 3.2 0.00 0.00 0.00 68 1004.2
20260505215055 28 256 8.0 9.7 0.00 0.00 0.00 69 1003.9
20260505214553 27 184 0.0 4.8 0.00 0.00 0.00 69 1004.1
20260505214049 28 177 4.8 12.9 0.00 0.00 0.00 68 1003.9
20260505213548 28 175 0.0 11.3 0.00 0.00 0.00 67 1004.0
20260505213044 28 146 1.6 11.3 0.00 0.00 0.00 68 1004.0
20260505212540 28 215 4.8 12.9 0.00 0.00 0.00 68 1004.2
20260505212038 27 180 3.2 12.9 0.00 0.00 0.00 68 1003.9
20260505211534 27 183 8.0 17.7 0.00 0.00 0.00 68 1004.2
20260505211031 27 137 3.2 16.1 0.00 0.00 0.00 68 1004.3
20260505210528 27 170 6.4 12.9 0.00 0.00 0.00 68 1004.1
20260505210025 27 184 12.9 22.5 0.00 0.00 0.00 68 1004.0
20260505205523 28 202 3.2 16.1 0.00 0.00 0.00 67 1004.1
20260505205020 28 181 16.1 20.9 0.00 0.00 0.00 66 1003.9
20260505204518 28 140 9.7 20.9 0.00 0.00 0.00 65 1004.2
20260505204015 28 196 1.6 4.8 0.00 0.00 0.00 66 1004.0
20260505203511 28 293 1.6 12.9 0.00 0.00 0.00 66 1004.3
20260505203008 29 305 3.2 14.5 0.00 0.00 0.00 65 1004.1
20260505202504 29 175 6.4 14.5 0.00 0.00 0.00 66 1004.3
20260505202000 28 164 9.7 12.9 0.00 0.00 0.00 67 1004.0
20260505201457 28 260 4.8 11.3 0.00 0.00 0.00 67 1004.4
20260505200955 28 79 8.0 14.5 0.00 0.00 0.00 68 1004.4
20260505200453 27 162 4.8 11.3 0.00 0.00 0.00 69 1004.4
20260505195948 28 151 11.3 16.1 0.00 0.00 0.00 67 1004.4
20260505195446 28 222 3.2 6.4 0.00 0.00 0.00 67 1004.4
20260505194943 28 154 1.6 9.7 0.00 0.00 0.00 69 1004.6
20260505194440 28 164 4.8 9.7 0.00 0.00 0.00 68 1004.7
20260505193940 28 289 3.2 11.3 0.00 0.00 0.00 67 1004.5